DB0HOL-4 Weather Reports


time (UTC)temp
F
wind
direction
speed
knots
gust
knots
rain 1hr
in
rain 24hr
in
rain mn
in
humidity
%
barometer
mb
20260506192636 44 340 2.6 2.6 0.00 1.51 0.99 99 1005.7
20260506185636 45 356 1.7 2.6 0.00 1.50 0.98 99 1005.7
20260506182727 45 16 0.0 0.0 0.00 1.50 0.98 99 1005.4
20260506182637 45 16 0.0 0.0 0.00 1.50 0.98 99 1005.4
20260506175637 45 359 1.7 2.6 0.00 1.49 0.97 99 1005.4
20260506172637 45 1 2.6 3.5 0.00 1.48 0.96 99 1005.4
20260506165637 45 13 0.0 0.0 0.00 1.48 0.96 99 1005.0
20260506162637 45 1 0.9 1.7 0.00 1.48 0.96 99 1005.0
20260506155636 45 357 0.0 0.9 0.00 1.47 0.95 99 1005.0
20260506152637 45 27 0.0 0.9 0.00 1.47 0.95 99 1005.0
20260506145637 45 30 0.0 0.9 0.00 1.47 0.95 99 1005.0
20260506142637 45 23 0.0 0.0 0.00 1.47 0.95 99 1004.7
20260506135637 45 5 0.9 1.7 0.00 1.46 0.94 99 1005.0
20260506132636 45 355 1.7 2.6 0.00 1.45 0.93 99 1004.7
20260506125637 45 0 1.7 3.5 0.00 1.45 0.93 99 1004.4
20260506122636 44 3 4.3 4.3 0.00 1.45 0.93 99 1004.4
20260506115637 44 5 1.7 2.6 0.00 1.45 0.93 99 1004.4
20260506112636 44 7 0.9 1.7 0.00 1.45 0.93 99 1004.4
20260506105637 44 25 2.6 3.5 0.00 1.45 0.93 99 1004.0
20260506102637 44 14 1.7 2.6 0.00 1.45 0.93 99 1003.7
20260506095637 45 43 0.0 0.9 0.00 1.44 0.92 99 1003.3
20260506092636 45 25 0.0 1.7 0.00 1.44 0.92 99 1003.3
20260506085637 44 20 2.6 3.5 0.00 1.41 0.89 99 1003.3
20260506082637 44 28 3.5 4.3 0.00 1.34 0.82 99 1003.0
20260506072636 45 25 2.6 3.5 0.00 1.26 0.74 99 1003.0
20260506043351 47 39 0.9 2.6 0.00 1.09 0.56 99 1003.0
20260506042637 47 39 0.9 2.6 0.00 1.09 0.56 99 1003.0
20260506035637 47 32 0.0 0.0 0.00 1.04 0.52 99 1003.0
20260506032714 47 39 0.0 0.9 0.00 0.99 0.47 99 1003.7
20260506032637 47 39 0.0 0.9 0.00 0.99 0.47 99 1003.7
20260506025740 48 38 0.0 0.9 0.00 0.92 0.40 99 1003.7
20260506025637 48 38 0.0 0.9 0.00 0.92 0.40 99 1003.7
20260506022638 48 31 0.0 0.0 0.00 0.86 0.34 99 1004.0
20260506015637 48 39 0.0 0.0 0.00 0.81 0.28 99 1004.0
20260506012637 48 25 0.0 0.0 0.00 0.74 0.22 99 1004.4
20260506005637 48 37 0.0 0.9 0.00 0.70 0.18 99 1004.4
20260506002637 48 46 0.0 0.0 0.00 0.64 0.12 99 1004.7
20260505235637 48 42 0.9 1.7 0.00 0.59 0.07 99 1005.0
20260505232637 48 31 0.0 1.7 0.00 0.55 0.03 99 1005.0
20260505225637 49 60 0.0 1.7 0.00 0.53 0.01 99 1005.0
20260505222637 49 39 0.9 1.7 0.00 0.50 0.17 99 1005.0
20260505215637 50 11 2.6 3.5 0.00 0.46 0.13 99 1005.4
20260505212636 50 57 0.0 0.9 0.00 0.41 0.08 99 1005.4
20260505205637 50 48 0.0 0.0 0.00 0.39 0.06 99 1005.4
20260505202637 50 73 1.7 2.6 0.00 0.38 0.05 99 1005.0
20260505195637 50 49 1.7 3.5 0.00 0.38 0.05 99 1005.0